Location: Elstree
(51.6403°N, 0.2969°W)
Time: 22:04:44
(UTC+00:00)

deb Delta 107 - Pass Details

Date: 02 February 2022
Orbit: 707 x 861 km, 97.7° (Epoch: 21 May)

Event Time Altitude Azimuth Distance (km) Brightness Sun altitude
Rises 18:52:12 0° 205° (SSW) 3,170 ? -18.7°
Reaches altitude 10° 18:55:01 10° 221° (SW) 2,230 ? -19.2°
Maximum altitude 18:58:42 21° 270° (W) 1,589 ? -19.7°
Drops below altitude 10° 19:02:20 10° 319° (NW) 2,202 ? -20.3°
Sets 19:05:07 0° 336° (NNW) 3,119 ? -20.7°
